Regional Weather Roundup
Issued by NWS Memphis, TN

Home | Current Version | Previous Version | Text Only | Print | Product List | Glossary On
Versions: 1 2 3 4 5 6 7 8 9 10 11 12 13 14 15 16 17 18 19 20 21 22 23 24 25 26 27 28 29 30 31 32 33 34 35 36 37 38 39 40 41 42 43 44 45 46 47 48 49 50
856
ASUS44 KMEG 290210
RWRMEG
MEMPHIS CWA HOURLY WEATHER ROUNDUP
NATIONAL WEATHER SERVICE MEMPHIS TN
900 PM CDT SAT MAY 28 2016

...WEST TENNESSEE...

CITY           SKY/WX    TMP DP  RH WIND       PRES   REMARKS
MEMPHIS INTL   CLOUDY    79  69  71 S9        30.03S
NWS MEMPHIS      N/A     76 N/A N/A MISG        N/A
JACKSON        CLOUDY    73  68  84 S3        30.05R
LEXINGTON      CLEAR     72  66  83 E3        30.05S
DYERSBURG      PTCLDY    75  64  69 S7        30.03R
UNION CITY     CLEAR     72  66  83 S7        30.03R
PARIS          CLEAR     72  66  83 S3        30.06R


...EASTERN ARKANSAS...

CITY           SKY/WX    TMP DP  RH WIND       PRES   REMARKS
JONESBORO      CLEAR     76  69  79 S6        30.01R
WEST MEMPHIS   CLEAR     75  70  84 CALM      30.01S
BATESVILLE     CLEAR     73  66  78 SE6       30.00S
NEWPORT        CLEAR     76  71  84 S7        30.02R
WALNUT RIDGE   CLEAR     75  66  73 S9        30.00S
BLYTHEVILLE    CLOUDY    77  71  82 S6        30.02S
SEARCY         CLEAR     73  69  87 S3        30.02R
STUTTGART      CLEAR     77  66  69 SE5       30.01S
PINE BLUFF     CLEAR     74  69  85 S7        30.01S
MONTICELLO     CLEAR     74  71  91 CALM      30.03R


...NORTH MISSISSIPPI...

CITY           SKY/WX    TMP DP  RH WIND       PRES   REMARKS
TUPELO         CLOUDY    73  70  90 CALM      30.06R
OXFORD         CLOUDY    72  66  83 S5        30.07S
BATESVILLE     FOG       73  70  90 CALM      30.05S VSB<1/4
OLIVE BRANCH   CLEAR     73  72  94 SE5       30.04S
TUNICA         CLEAR     73  70  88 S5        30.03S
CLARKSDALE     CLEAR     77  73  88 S6        30.04R
CORINTH        CLOUDY    73  68  83 CALM      30.05S
GREENWOOD      CLEAR     76  67  73 CALM      30.05R
COLUMBUS       CLOUDY    78  67  69 S6        30.05R
STARKVILLE     CLOUDY    72  68  88 CALM      30.06S
GOLDEN TRIANGL CLOUDY    79  66  65 CALM      30.06S


...SOUTHEAST MISSOURI...

CITY           SKY/WX    TMP DP  RH WIND       PRES   REMARKS
KENNETT        CLOUDY    77  73  88 S7        30.01R
WEST PLAINS    PTCLDY    73  65  75 S6        30.02S
POPLAR BLUFF   CLOUDY    76  69  79 S6        30.00R
CAPE GIRARDEAU PTCLDY    74  67  78 S6        30.01R


...NORTHWEST ALABAMA...

CITY           SKY/WX    TMP DP  RH WIND       PRES   REMARKS
MUSCLE SHOALS  PTCLDY    75  64  68 E3        30.08S


...MIDDLE TENNESSEE...

CITY           SKY/WX    TMP DP  RH WIND       PRES   REMARKS
NASHVILLE      CLOUDY    75  61  61 CALM      30.08F
CLARKSVILLE    PTCLDY    74  65  73 SE5       30.05S
COLUMBIA       CLEAR     72  72 100 CALM      30.08R


...WESTERN KENTUCKY...

CITY           SKY/WX    TMP DP  RH WIND       PRES   REMARKS
PADUCAH        MOCLDY    76  66  71 S5        30.02R
FORT CAMPBELL  DRIZZLE   76  67  75 SE5       30.05S


...CENTRAL ARKANSAS...

CITY           SKY/WX    TMP DP  RH WIND       PRES   REMARKS
LITTLE ROCK    CLEAR     75  67  76 S5        30.00S


SKY/WX REPORTED AS FAIR MEANS FEW OR NO CLOUDS BELOW
12 THOUSAND FEET.





USA.gov is the U.S. government's official web portal to all federal, state and local government web resources and services.